GFA216 FIMP-DTNH

Flight info

Callsign GFA216
Flight time N/A
Altitude 36000
Route OKMAR1 OKMAR UT665 AMBOD UA665 ANKOR/N0482F370 UM665 ITLOX/N0479F380 UM665 MAV G300 ETONI/N0472F400 G300 TIKAT N314 ATMUL R2 BNA M621 RIGEM M622 INDOT DCT ADIPO DCT OMENI UL874 SORAB SORAB1E
Aircraft A343/H-SDE2E3FGHIJ4J5M1RWXY/LB1D1

Departure

Time N/A
Airport Sir Seewoosagur Ramgoolam International Airport (FIMP)

Arrival

Time 2026-04-20 18:31
Airport Enfidha - Hammamet International Airport (DTNH)
Time Latitude Longitude Altitude Speed Heading
2026-04-20 16:41 30.53629 21.79147 40066 ft 407 kts 313°
2026-04-20 16:41 30.58038 21.74973 40065 ft 410 kts 313°
2026-04-20 16:42 30.62456 21.70788 40066 ft 410 kts 313°
2026-04-20 16:42 30.66880 21.66594 40059 ft 410 kts 313°
2026-04-20 16:43 30.71306 21.62392 40064 ft 410 kts 313°
2026-04-20 16:43 30.75721 21.58195 40063 ft 410 kts 313°
2026-04-20 16:44 30.79402 21.54692 40064 ft 411 kts 313°
2026-04-20 16:44 30.83822 21.50474 40064 ft 411 kts 313°
2026-04-20 16:45 30.88243 21.46247 40064 ft 411 kts 313°
2026-04-20 16:45 30.92666 21.42015 40064 ft 411 kts 313°
2026-04-20 16:46 30.97086 21.37781 40067 ft 411 kts 313°
2026-04-20 16:46 31.01506 21.33542 40067 ft 411 kts 313°
2026-04-20 16:47 31.05896 21.29327 40067 ft 411 kts 313°
2026-04-20 16:47 31.10313 21.25079 40074 ft 412 kts 314°
2026-04-20 16:48 31.14744 21.20813 40064 ft 413 kts 314°
2026-04-20 16:48 31.19176 21.16542 40067 ft 413 kts 314°
2026-04-20 16:49 31.23604 21.12268 40073 ft 413 kts 314°
2026-04-20 16:49 31.28038 21.07983 40070 ft 414 kts 314°
2026-04-20 16:50 31.32471 21.03695 40070 ft 414 kts 314°
2026-04-20 16:50 31.36915 20.99391 40073 ft 414 kts 314°
2026-04-20 16:51 31.41351 20.95088 40074 ft 415 kts 314°
2026-04-20 16:51 31.45798 20.90769 40072 ft 416 kts 314°
2026-04-20 16:52 31.50251 20.86439 40078 ft 416 kts 314°
2026-04-20 16:52 31.54701 20.82106 40080 ft 416 kts 314°
2026-04-20 16:53 31.59149 20.77770 40084 ft 416 kts 314°
2026-04-20 16:53 31.63600 20.73425 40086 ft 416 kts 314°
2026-04-20 16:54 31.68053 20.69073 40088 ft 416 kts 314°
2026-04-20 16:54 31.72506 20.64714 40089 ft 417 kts 314°
2026-04-20 16:55 31.76958 20.60351 40099 ft 417 kts 314°
2026-04-20 16:55 31.81411 20.55982 40099 ft 416 kts 314°
2026-04-20 16:56 31.85857 20.51614 40104 ft 416 kts 314°
2026-04-20 16:56 31.90303 20.47240 40110 ft 417 kts 314°
2026-04-20 16:57 31.94747 20.42862 40118 ft 417 kts 314°
2026-04-20 16:57 31.99196 20.38473 40125 ft 417 kts 314°
2026-04-20 16:58 32.03623 20.34102 40131 ft 418 kts 314°
2026-04-20 16:58 32.08076 20.29698 40129 ft 418 kts 314°
2026-04-20 16:59 32.12422 20.25160 40131 ft 414 kts 308°
2026-04-20 16:59 32.16166 20.20048 40129 ft 411 kts 305°
2026-04-20 17:00 32.21591 20.12207 40121 ft 411 kts 304°
2026-04-20 17:01 32.25193 20.06969 40123 ft 411 kts 304°
2026-04-20 17:01 32.28807 20.01723 40117 ft 411 kts 304°
2026-04-20 17:02 32.32417 19.96486 40114 ft 411 kts 304°
2026-04-20 17:02 32.36033 19.91233 40114 ft 413 kts 304°
2026-04-20 17:03 32.39660 19.85955 40113 ft 413 kts 304°
2026-04-20 17:03 32.43289 19.80668 40113 ft 413 kts 304°
2026-04-20 17:04 32.46915 19.75378 40108 ft 413 kts 304°
2026-04-20 17:04 32.50537 19.70086 40110 ft 414 kts 304°
2026-04-20 17:05 32.54162 19.64781 40115 ft 414 kts 304°
2026-04-20 17:05 32.57782 19.59478 40115 ft 414 kts 304°
2026-04-20 17:06 32.61370 19.54212 40109 ft 414 kts 304°
2026-04-20 17:06 32.64987 19.48897 40110 ft 414 kts 304°
2026-04-20 17:07 32.68603 19.43575 40116 ft 415 kts 304°
2026-04-20 17:07 32.72233 19.38224 40113 ft 416 kts 304°
2026-04-20 17:08 32.75867 19.32862 40111 ft 416 kts 304°
2026-04-20 17:08 32.79498 19.27497 40110 ft 416 kts 304°
2026-04-20 17:09 32.83138 19.22149 40111 ft 417 kts 305°
2026-04-20 17:09 32.86827 19.16826 40110 ft 417 kts 305°
2026-04-20 17:10 32.90484 19.11546 40108 ft 417 kts 305°
2026-04-20 17:10 32.94167 19.06207 40108 ft 417 kts 305°
2026-04-20 17:11 32.97844 19.00860 40108 ft 417 kts 305°
2026-04-20 17:11 33.01524 18.95500 40111 ft 418 kts 305°
2026-04-20 17:12 33.05203 18.90132 40115 ft 419 kts 305°
2026-04-20 17:12 33.08887 18.84751 40102 ft 419 kts 305°
2026-04-20 17:13 33.12572 18.79361 40112 ft 419 kts 305°
2026-04-20 17:13 33.16251 18.73972 40114 ft 419 kts 305°
2026-04-20 17:14 33.19935 18.68568 40109 ft 420 kts 305°
2026-04-20 17:14 33.23617 18.63157 40109 ft 420 kts 305°
2026-04-20 17:15 33.27299 18.57740 40109 ft 420 kts 305°
2026-04-20 17:15 33.30975 18.52323 40092 ft 420 kts 305°
2026-04-20 17:16 33.34622 18.46941 40109 ft 420 kts 305°
2026-04-20 17:16 33.38303 18.41500 40103 ft 420 kts 305°
2026-04-20 17:17 33.41981 18.36057 40103 ft 421 kts 305°
2026-04-20 17:17 33.45621 18.30569 40112 ft 421 kts 304°
2026-04-20 17:18 33.49226 18.25057 40103 ft 420 kts 304°
2026-04-20 17:18 33.52836 18.19541 40103 ft 421 kts 304°
2026-04-20 17:19 33.56454 18.14022 40104 ft 421 kts 304°
2026-04-20 17:19 33.60070 18.08503 40101 ft 421 kts 304°
2026-04-20 17:20 33.63654 18.03024 40099 ft 421 kts 304°
2026-04-20 17:20 33.67264 17.97498 40104 ft 420 kts 304°
2026-04-20 17:21 33.70875 17.91962 40100 ft 420 kts 304°
2026-04-20 17:21 33.74478 17.86428 40101 ft 420 kts 304°
2026-04-20 17:22 33.78081 17.80885 40100 ft 420 kts 304°
2026-04-20 17:22 33.81677 17.75346 40101 ft 420 kts 304°
2026-04-20 17:23 33.85276 17.69793 40100 ft 421 kts 304°
2026-04-20 17:23 33.88880 17.64224 40101 ft 422 kts 304°
2026-04-20 17:24 33.92481 17.58651 40097 ft 422 kts 304°
2026-04-20 17:24 33.96080 17.53073 40097 ft 422 kts 304°
2026-04-20 17:25 33.99652 17.47529 40098 ft 421 kts 304°
2026-04-20 17:25 34.03244 17.41954 40094 ft 421 kts 304°
2026-04-20 17:26 34.06835 17.36361 40095 ft 422 kts 304°
2026-04-20 17:26 34.10424 17.30756 40094 ft 422 kts 304°
2026-04-20 17:27 34.14013 17.25150 40095 ft 422 kts 304°
2026-04-20 17:27 34.17604 17.19532 40094 ft 422 kts 304°
2026-04-20 17:28 34.21188 17.13917 40094 ft 422 kts 304°
2026-04-20 17:28 34.24773 17.08291 40094 ft 422 kts 304°
2026-04-20 17:29 34.28333 17.02695 40090 ft 422 kts 304°
2026-04-20 17:29 34.31873 16.97018 40100 ft 422 kts 300°
2026-04-20 17:30 34.34479 16.90724 40091 ft 417 kts 289°
2026-04-20 17:30 34.36460 16.84129 40090 ft 417 kts 288°
2026-04-20 17:31 34.38341 16.77479 40091 ft 417 kts 287°
2026-04-20 17:31 34.40220 16.70820 40089 ft 417 kts 288°
2026-04-20 17:32 34.42109 16.64164 40086 ft 418 kts 288°
2026-04-20 17:32 34.44005 16.57497 40087 ft 419 kts 288°
2026-04-20 17:33 34.45578 16.51957 40088 ft 419 kts 288°
2026-04-20 17:33 34.47471 16.45273 40087 ft 419 kts 288°
2026-04-20 17:34 34.49663 16.37514 40084 ft 419 kts 287°
2026-04-20 17:34 34.51240 16.31916 40083 ft 419 kts 287°
2026-04-20 17:35 34.53121 16.25222 40086 ft 420 kts 287°
2026-04-20 17:35 34.55001 16.18520 40084 ft 420 kts 287°
2026-04-20 17:36 34.56880 16.11804 40085 ft 420 kts 287°
2026-04-20 17:36 34.58754 16.05090 40084 ft 420 kts 287°
2026-04-20 17:37 34.60610 15.98424 40080 ft 420 kts 287°
2026-04-20 17:37 34.62480 15.91693 40083 ft 421 kts 287°
2026-04-20 17:38 34.64345 15.84961 40080 ft 421 kts 287°
2026-04-20 17:38 34.66209 15.78217 40080 ft 421 kts 287°
2026-04-20 17:39 34.68072 15.71462 40080 ft 421 kts 287°
2026-04-20 17:39 34.69928 15.64714 40080 ft 421 kts 287°
2026-04-20 17:40 34.71782 15.57955 40081 ft 422 kts 287°
2026-04-20 17:40 34.73636 15.51183 40080 ft 422 kts 287°
2026-04-20 17:41 34.75488 15.44400 40080 ft 422 kts 287°
2026-04-20 17:41 34.77336 15.37614 40089 ft 422 kts 287°
2026-04-20 17:42 34.79178 15.30833 40078 ft 422 kts 287°
2026-04-20 17:42 34.81016 15.24053 40077 ft 423 kts 287°
2026-04-20 17:43 34.82854 15.17254 40073 ft 423 kts 287°
2026-04-20 17:43 34.84690 15.10445 40070 ft 423 kts 287°
2026-04-20 17:44 34.86508 15.03685 40073 ft 423 kts 287°
2026-04-20 17:44 34.88335 14.96876 40075 ft 423 kts 287°
2026-04-20 17:45 34.90159 14.90062 40071 ft 423 kts 287°
2026-04-20 17:45 34.91981 14.83236 40070 ft 424 kts 287°
2026-04-20 17:46 34.93803 14.76394 40075 ft 424 kts 287°
2026-04-20 17:46 34.95622 14.69545 40068 ft 424 kts 287°
2026-04-20 17:47 34.97436 14.62696 40065 ft 424 kts 287°
2026-04-20 17:47 34.99246 14.55847 40068 ft 424 kts 287°
2026-04-20 17:48 35.01050 14.49002 40068 ft 424 kts 287°
2026-04-20 17:48 35.02852 14.42147 40069 ft 424 kts 287°
2026-04-20 17:49 35.04639 14.35331 40063 ft 424 kts 287°
2026-04-20 17:49 35.06437 14.28456 40064 ft 424 kts 287°
2026-04-20 17:50 35.08226 14.21598 40069 ft 424 kts 286°
2026-04-20 17:50 35.10017 14.14717 40067 ft 425 kts 286°
2026-04-20 17:51 35.11911 14.07886 40066 ft 426 kts 291°
2026-04-20 17:51 35.14285 14.01251 40059 ft 426 kts 292°
2026-04-20 17:52 35.16739 13.94649 40056 ft 426 kts 292°
2026-04-20 17:52 35.19199 13.88051 40061 ft 426 kts 292°
2026-04-20 17:53 35.21648 13.81446 40062 ft 427 kts 292°
2026-04-20 17:53 35.24078 13.74863 40056 ft 427 kts 292°
2026-04-20 17:54 35.26519 13.68233 40058 ft 427 kts 292°
2026-04-20 17:54 35.28958 13.61595 40052 ft 427 kts 292°
2026-04-20 17:55 35.31391 13.54959 40053 ft 427 kts 292°
2026-04-20 17:55 35.33822 13.48318 40049 ft 428 kts 292°
2026-04-20 17:56 35.36252 13.41662 40053 ft 428 kts 292°
2026-04-20 17:56 35.38682 13.34992 40053 ft 428 kts 292°
2026-04-20 17:57 35.41105 13.28330 40055 ft 428 kts 292°
2026-04-20 17:57 35.43528 13.21652 40052 ft 429 kts 292°
2026-04-20 17:58 35.45950 13.14963 40046 ft 429 kts 292°
2026-04-20 17:58 35.48367 13.08274 40049 ft 429 kts 292°
2026-04-20 17:59 35.50781 13.01579 40042 ft 429 kts 292°
2026-04-20 17:59 35.53193 12.94875 40037 ft 429 kts 292°
2026-04-20 18:00 35.55601 12.88169 40039 ft 429 kts 292°
2026-04-20 18:00 35.58007 12.81450 40031 ft 429 kts 292°
2026-04-20 18:01 35.60408 12.74735 40029 ft 430 kts 292°
2026-04-20 18:01 35.62810 12.68000 40025 ft 430 kts 292°
2026-04-20 18:02 35.65196 12.61298 40024 ft 431 kts 292°
2026-04-20 18:02 35.67593 12.54548 40027 ft 431 kts 292°
2026-04-20 18:03 35.69988 12.47791 40026 ft 431 kts 292°
2026-04-20 18:03 35.72377 12.41035 40025 ft 431 kts 291°
2026-04-20 18:04 35.74768 12.34261 39983 ft 431 kts 291°
2026-04-20 18:04 35.75700 12.30835 39793 ft 416 kts 269°
2026-04-20 18:04 35.76624 12.27475 39748 ft 414 kts 289°
2026-04-20 18:05 35.80180 12.17547 39504 ft 431 kts 289°
2026-04-20 18:05 35.81395 12.14152 39375 ft 430 kts 289°
2026-04-20 18:05 35.82585 12.10797 38878 ft 427 kts 289°
2026-04-20 18:06 35.83768 12.07438 38279 ft 426 kts 290°
2026-04-20 18:06 35.84960 12.04115 37742 ft 423 kts 291°
2026-04-20 18:06 35.86170 12.00827 37214 ft 420 kts 291°
2026-04-20 18:06 35.87355 11.97597 36708 ft 417 kts 291°
2026-04-20 18:07 35.88529 11.94341 36171 ft 414 kts 291°
2026-04-20 18:07 35.89681 11.91096 35633 ft 412 kts 291°
2026-04-20 18:07 35.90816 11.87851 35062 ft 411 kts 291°
2026-04-20 18:07 35.91940 11.84612 34437 ft 412 kts 291°
2026-04-20 18:08 35.93068 11.81342 33689 ft 415 kts 291°
2026-04-20 18:08 35.94201 11.78049 32816 ft 418 kts 291°
2026-04-20 18:08 35.95341 11.74731 31969 ft 421 kts 291°
2026-04-20 18:08 35.96488 11.71388 31099 ft 425 kts 291°
2026-04-20 18:09 35.97648 11.68009 30176 ft 430 kts 291°
2026-04-20 18:09 35.98824 11.64590 29294 ft 432 kts 291°
2026-04-20 18:09 35.99991 11.61208 28737 ft 425 kts 291°
2026-04-20 18:09 36.01143 11.57866 28148 ft 420 kts 291°
2026-04-20 18:10 36.02279 11.54566 27539 ft 416 kts 291°
2026-04-20 18:10 36.03290 11.51244 26976 ft 411 kts 285°
2026-04-20 18:10 36.03837 11.47800 26400 ft 408 kts 275°
2026-04-20 18:10 36.03876 11.47345 26330 ft 407 kts 275°
2026-04-20 18:11 36.03886 11.47209 26306 ft 407 kts 274°
2026-04-20 18:11 36.04092 11.43717 25700 ft 404 kts 272°
2026-04-20 18:11 36.04244 11.40258 25095 ft 402 kts 272°
2026-04-20 18:11 36.04379 11.36816 24509 ft 399 kts 272°
2026-04-20 18:12 36.04504 11.33397 23916 ft 398 kts 271°
2026-04-20 18:12 36.04629 11.29987 23258 ft 396 kts 271°
2026-04-20 18:12 36.04747 11.26607 22617 ft 393 kts 272°
2026-04-20 18:12 36.04862 11.23237 22012 ft 390 kts 271°
2026-04-20 18:13 36.04973 11.19944 21422 ft 386 kts 271°
2026-04-20 18:13 36.05083 11.16644 20835 ft 383 kts 271°
2026-04-20 18:13 36.05192 11.13366 20242 ft 381 kts 271°
2026-04-20 18:13 36.05299 11.10102 19658 ft 378 kts 271°
2026-04-20 18:14 36.05404 11.06863 19079 ft 376 kts 271°
2026-04-20 18:14 36.05509 11.03635 18497 ft 375 kts 271°
2026-04-20 18:14 36.05611 11.00431 17880 ft 373 kts 271°
2026-04-20 18:14 36.05713 10.97235 17282 ft 370 kts 271°
2026-04-20 18:15 36.05812 10.94075 16709 ft 366 kts 271°
2026-04-20 18:15 36.05910 10.90950 16154 ft 363 kts 271°
2026-04-20 18:15 36.06005 10.87880 15588 ft 360 kts 271°
2026-04-20 18:15 36.06099 10.84806 15015 ft 358 kts 271°
2026-04-20 18:16 36.06192 10.81749 14446 ft 356 kts 271°
2026-04-20 18:16 36.06284 10.78692 13872 ft 355 kts 271°
2026-04-20 18:16 36.06376 10.75653 13241 ft 353 kts 271°
2026-04-20 18:16 36.06464 10.72694 12688 ft 350 kts 271°
2026-04-20 18:17 36.06553 10.69688 12110 ft 347 kts 271°
2026-04-20 18:17 36.06640 10.66723 11546 ft 343 kts 271°
2026-04-20 18:17 36.06726 10.63791 10978 ft 340 kts 271°
2026-04-20 18:17 36.06808 10.60958 10585 ft 332 kts 271°
2026-04-20 18:18 36.06887 10.58174 10469 ft 315 kts 271°
2026-04-20 18:18 36.06960 10.55595 10362 ft 283 kts 270°
2026-04-20 18:18 36.07031 10.53310 10271 ft 253 kts 271°
2026-04-20 18:18 36.07099 10.51146 10174 ft 252 kts 271°
2026-04-20 18:19 36.07163 10.48985 10062 ft 252 kts 270°
2026-04-20 18:19 36.07223 10.46837 9950 ft 254 kts 270°
2026-04-20 18:19 36.07293 10.44644 9593 ft 255 kts 272°
2026-04-20 18:19 36.07651 10.42502 9264 ft 255 kts 286°
2026-04-20 18:20 36.08284 10.40464 8934 ft 254 kts 289°
2026-04-20 18:20 36.08962 10.38440 8588 ft 254 kts 289°
2026-04-20 18:20 36.09411 10.37099 8351 ft 254 kts 290°
2026-04-20 18:20 36.10081 10.35087 8014 ft 253 kts 289°
2026-04-20 18:21 36.10680 10.33067 7695 ft 250 kts 288°
2026-04-20 18:21 36.11281 10.31237 7423 ft 250 kts 290°
2026-04-20 18:22 36.11758 10.29748 7161 ft 247 kts 282°
2026-04-20 18:22 36.12209 10.27696 6765 ft 248 kts 285°
2026-04-20 18:22 36.12884 10.25723 6517 ft 249 kts 292°
2026-04-20 18:22 36.13546 10.23750 6187 ft 247 kts 287°
2026-04-20 18:23 36.14019 10.21718 5861 ft 245 kts 282°
2026-04-20 18:23 36.14387 10.19663 5557 ft 244 kts 280°
2026-04-20 18:23 36.14719 10.17602 5265 ft 245 kts 280°
2026-04-20 18:23 36.15041 10.15533 4954 ft 244 kts 280°
2026-04-20 18:24 36.15302 10.13440 4586 ft 246 kts 272°
2026-04-20 18:24 36.15083 10.11370 4360 ft 245 kts 250°
2026-04-20 18:24 36.14189 10.09564 3810 ft 252 kts 224°
2026-04-20 18:24 36.12700 10.08417 3337 ft 255 kts 198°
2026-04-20 18:25 36.10975 10.08179 2937 ft 254 kts 173°
2026-04-20 18:25 36.09305 10.08885 2629 ft 251 kts 148°
2026-04-20 18:25 36.08150 10.10408 2531 ft 251 kts 118°
2026-04-20 18:25 36.07669 10.12494 2524 ft 256 kts 98°
2026-04-20 18:26 36.07621 10.14710 2521 ft 259 kts 91°
2026-04-20 18:26 36.07677 10.16927 2521 ft 256 kts 90°
2026-04-20 18:26 36.07694 10.19140 2519 ft 259 kts 92°
2026-04-20 18:26 36.07678 10.21349 2518 ft 252 kts 92°
2026-04-20 18:27 36.07664 10.23460 2530 ft 237 kts 92°
2026-04-20 18:27 36.07654 10.25447 2421 ft 227 kts 92°
2026-04-20 18:27 36.07647 10.27326 2257 ft 211 kts 92°
2026-04-20 18:27 36.07642 10.29070 2064 ft 196 kts 92°
2026-04-20 18:28 36.07632 10.30690 1847 ft 181 kts 92°
2026-04-20 18:28 36.07625 10.32196 1574 ft 170 kts 92°
2026-04-20 18:28 36.07618 10.33614 1328 ft 159 kts 92°
2026-04-20 18:28 36.07613 10.34935 1135 ft 149 kts 91°
2026-04-20 18:29 36.07608 10.36143 945 ft 136 kts 92°
2026-04-20 18:29 36.07602 10.37254 781 ft 124 kts 89°
2026-04-20 18:29 36.07599 10.38298 631 ft 121 kts 81°
2026-04-20 18:29 36.07574 10.39339 496 ft 123 kts 79°
2026-04-20 18:30 36.07584 10.40390 347 ft 124 kts 85°
2026-04-20 18:30 36.07570 10.41468 227 ft 125 kts 80°
2026-04-20 18:30 36.07577 10.42529 74 ft 118 kts 77°
2026-04-20 18:30 36.07552 10.43433 39 ft 95 kts 92°
2026-04-20 18:31 36.07569 10.43996 34 ft 46 kts 86°
2026-04-20 18:31 36.07579 10.44360 33 ft 41 kts 89°
2026-04-20 18:31 36.07582 10.44649 36 ft 19 kts 80°
2026-04-20 18:31 36.07639 10.44780 34 ft 17 kts 56°
2026-04-20 18:32 36.07703 10.44859 33 ft 8 kts
2026-04-20 18:32 36.07723 10.44859 33 ft 1 kts 355°
2026-04-20 18:32 36.07735 10.44854 33 ft 1 kts 343°
2026-04-20 18:32 36.07748 10.44807 34 ft 13 kts 274°
2026-04-20 18:33 36.07743 10.44680 34 ft 16 kts 267°
2026-04-20 18:33 36.07739 10.44538 36 ft 17 kts 271°
2026-04-20 18:33 36.07743 10.44389 38 ft 18 kts 272°
2026-04-20 18:33 36.07748 10.44224 36 ft 21 kts 271°
2026-04-20 18:34 36.07745 10.44054 36 ft 20 kts 269°
2026-04-20 18:34 36.07783 10.43950 36 ft 10 kts 330°
2026-04-20 18:34 36.07863 10.43936 34 ft 13 kts 359°
2026-04-20 18:34 36.07965 10.43939 31 ft 12 kts
2026-04-20 18:35 36.08058 10.43941 30 ft 16 kts 353°
2026-04-20 18:35 36.08102 10.43924 21 ft 1 kts 346°
2026-04-20 18:35 36.08117 10.43920 20 ft 4 kts 347°
2026-04-20 18:35 36.08130 10.43916 21 ft 0 kts 346°